COSMOS 1275 DEB, 42225

Orbit data source: Space-Track

COSMOS 1275 DEB, 42225 is space debris in LEO originally from a launch on Thu, 04 Jun 1981 UTC launched from the Plesetsk Missile And Space Complex (PKMTR). Debris objects in space refer to the collection of defunct objects orbiting the Earth. Examples of debris include non-operational satellites, rocket bodies, and fragments generated from explosions, collisions, or faulty payload assembly.

Loading next visibility...
Identifier
42225, 1981-053UR
Orbit
LEO
Country
Flag of CISCIS
Related business
Manufacturer
Unknown
Mission
Spacecraft
Bus & Motor
Unknown
Mass
Unknown
Launch date (UTC)
1981-06-04 (45 years ago)
Launch vehicle
Unknown
Launch site
Plesetsk Missile And Space Complex (PKMTR)
Object type
Payload
Rocket body
Debris
Shape & HBR
Unknown shape, 0.1 m
Radar Cross Section
Small (<0.1 m²)

Expand to show TLE details & history
Last TLE update: 2 weeks ago

TLE from 2 weeks ago
0 COSMOS 1275 DEB
1 42225U 81053UR  26022.49194823  .00003724  00000-0  18258-2 0  9996
2 42225  83.1466 300.4108 0032889 236.3547 123.4495 14.17291498625457
Epoch: 2026-01-22T11:48Z
TLE epoch observation values (Epoch: 2026-01-22T11:48:24.327Z)
Latitude
0.00002°
Longitude
1.4651°
Altitude
850.623 km
Speed
7.421 km/s
True Right ascension
20h 01m 38s
True Declination
0° 00' 00"
Sunlit
Object was in daylight at epoch
Visualization orbit readout
Latitude
Unknown
Longitude
Unknown
Altitude
Unknown
Speed
Unknown
Apparent Right ascension
Unknown
Apparent Declination
Unknown
Sunlit
N/A
Visualization observer readout
Local Sidereal Time
04:48:20
Azimuth
Unknown
Elevation
Unknown
Doppler factor
Unknown
Orbital elements
Apogee altitude
855.322 km
Perigee altitude
807.898 km
Semi-major axis
7,209.747 km
Eccentricity
0.00329
Inclination
83.1466°
RAAN
300.4108°
Arg. of periapsis
236.3547°
True anomaly
123.76325°
Mean anomaly
123.4495°
Eccentric anomaly
123.60644°
Mean motion
3.54538 °/min
Orbital period
101.54 mins
BSTAR
0.0018258
Loading maneuver chart data...
Computing Atmospheric mass density...
Loading historical data...
Loading historical data...
Loading historical data...
Loading historical data...
Loading historical data...
Loading historical data...
Loading historical data...

Documentation

Showing up to 5 results
|